SL-8 R/B

Satellite information

Favourite Embed

Satellite Type and Status

ROCKET BODYIN ORBIT

Key statistics

Satellite SL-8 R/B at a glance.

Uptime

18467

Days in orbit

Revolutions

≈ 13.7

Per day

Orbit

LEO

Low Earth Orbit

Inclination

82.9

Latest

Satellite identification and parameters

Extended collection of information and parameters for SL-8 R/B.

Object identification

Identified? True

Debris? False

Object name: SL-8 R/B

International designator: 1974-079B

Object number (NORAD): 7477

Object ID (CCSDS): 7477

Country: COMMONWEALTH OF INDEPENDENT STATES (CIS)

Current information (Y/N): Y

RCS size: LARGE

Orbital parameters

Period: 104.785 minutes

Inclination: 82.944 deg

SMA: 7362.523 km

Apoapsis: 1009.125 km

Periapsis: 959.651 km

RAAN: 70.6208 deg

Eccentricy: 0.0033598

Argument of periapsis: 353.0861 deg

Mean anomaly: 68.4106 deg

Mean motion: 13.74240545 rev/day

Mean motion (dot): 0.00000115 rev/day2

B* drag term: 0.00010619 1/REarth

Two-line elements (TLE)

Creation date: May 10, 2025, 2:32 a.m.

Reference frame: TEME

Reference center: EARTH

Epoch: May 9, 2025, 8 p.m. UTC

TLE line 0: 0 SL-8 R/B

TLE line 1: 1 07477U 74079B 25129.83339285 .00000115 00000-0 10619-3 0 9999

TLE line 2: 2 07477 82.9440 70.6208 0033598 353.0861 68.4106 13.74240545534340

Live tracking on map

Real-time ground track for satellite SL-8 R/B.

In-orbit conjunctions

A list of the most updated potential collisions computed for object SL-8 R/B.

Target Orbit TCA Probability of collision Miss distance Type
SCOUT G-1 DEB LEO 2025-02-15 08:42:09 0.0001319754 194.0 (m) DEBRIS
COSMOS 970 DEB LEO 2024-12-21 11:25:13 0.0001047225 753.0 (m) DEBRIS
FENGYUN 1C DEB SSO 2024-11-10 15:13:31 0.0001384424 100.0 (m) DEBRIS
DELTA 1 DEB SSO 2024-09-26 12:47:14 0.0004318694 130.0 (m) DEBRIS
THORAD AGENA D DEB SSO 2024-09-16 03:36:55 0.0001294769 733.0 (m) DEBRIS

Associated space launch

High resolution optical reconnaissance satellite of the Vostok-based Zenit family.

SL-8 R/B was lifted into orbit during the mission ‘Voskhod | Zenit-4MK 31’, on board a Voskhod space rocket.

The launch took place on Oct. 18, 1974, 3 p.m. from 41/1.

For more information about the launch, click the button.

Launch to space Voskhod | Zenit-4MK 31
Voskhod | Zenit-4MK 31

Agency: N/A

Status: Launch Successful

Launch date: Oct. 18, 1974, 3 p.m. UTC

Rocket: Voskhod

Launch pad: 41/1

Location: Plesetsk Cosmodrome, Russian Federation

...

Latest news about this satellite

There are no fresh news available about this satellite. Check back as we update our databases every day.


Newsletter sign-up

Weekly statistics, charts and insights to help you stay on top of the space industry.